Location: Arborea
(39.7744°N, 8.5819°E)
Time: 02:56:05
(UTC+00:00)

USA 229 - Pass Details

Date: 06 June 2022
Orbit: 938 x 1274 km, 63.4° (Epoch: 24 May)

Event Time Altitude Azimuth Distance (km) Brightness Sun altitude
Rises 23:30:08 0° 309° (NW) 4,080 7.2 -27.5°
Reaches altitude 10° 23:33:58 10° 290° (WNW) 3,167 6.3 -27.5°
Maximum altitude 23:38:25 17° 254° (WSW) 2,731 5.6 -27.4°
Enters shadow 23:38:40 17° 252° (WSW) 2,734 5.6 -27.4°
